Location: Newark
(39.0622°N, 106.5590°E)
Time: 15:18:51
(UTC+00:00)

N. Korean satellite - Visible Passes

Search period start: 06 December 2019 00:00
Search period end: 16 December 2019 00:00
Orbit: 456 x 506 km, 97.2° (Epoch: 06 December)

Date Brightness Start Highest point End Pass type
(mag) Time Alt. Az. Time Alt. Az. Time Alt. Az.
06 Dec 10.0 11:03:47 10° SW 11:05:46 14° W 11:07:46 10° WNW visible
06 Dec 7.5 22:29:30 10° NNE 22:32:58 50° E 22:36:22 10° S visible
07 Dec 9.0 10:36:57 10° SSW 10:40:12 28° W 10:43:27 10° NW visible
07 Dec 9.1 22:04:35 10° NE 22:07:26 22° E 22:10:14 10° SSE visible
08 Dec 7.3 10:11:02 10° S 10:14:42 62° W 10:18:24 10° NNW visible
08 Dec 10.1 21:41:00 10° ENE 21:41:50 11° E 21:42:38 10° ESE visible
08 Dec 7.0 23:12:06 10° N 23:15:24 38° WNW 23:18:39 10° SW visible
09 Dec 6.4 22:46:29 10° NNE 22:50:02 89° WNW 22:53:30 10° SSW visible
10 Dec 9.8 10:54:51 10° SW 10:57:22 17° W 10:59:54 10° NW visible
10 Dec 8.0 22:21:16 10° NNE 22:24:34 38° E 22:27:49 10° SSE visible
11 Dec 8.5 10:28:24 10° SSW 10:31:49 35° W 10:35:15 10° NNW visible
11 Dec 9.5 21:56:34 10° NE 21:59:01 18° E 22:01:25 10° SE visible
11 Dec 7.7 23:29:32 10° NNW 23:32:21 23° WNW 23:35:07 10° SW visible
12 Dec 6.8 10:02:39 10° S 10:06:21 81° WSW 10:10:04 10° NNW visible
12 Dec 6.6 23:03:39 10° N 23:07:03 49° WNW 23:10:23 10° SSW visible
13 Dec 10.3 11:13:52 10° WSW 11:14:34 10° W 11:15:17 10° W visible
13 Dec 6.8 22:38:09 10° NNE 22:41:39 69° E 22:45:04 10° S visible
14 Dec 9.4 10:46:04 10° SSW 10:48:57 22° W 10:51:51 10° NW visible
14 Dec 8.6 22:13:03 10° NE 22:16:08 29° E 22:19:10 10° SSE visible
15 Dec 7.9 10:19:53 10° S 10:23:26 45° W 10:26:59 10° NNW visible
15 Dec 9.8 21:48:41 10° ENE 21:50:32 14° E 21:52:23 10° SE visible
15 Dec 7.3 23:20:58 10° NNW 23:24:00 28° WNW 23:27:00 10° SW visible
